Newport Airport, OR

5:10 AM PST on January 23, 2018 (GMT -0800)
Newport Municipal

Weather History for KONP - March, 2014

Change the Weather History Date:

Thursday, March 27, 2014

  Actual Average Record
Temperature  
Mean Temperature 50 °F -  
Max Temperature 53 °F 51 °F 123 °F (2005)
Min Temperature 46 °F 40 °F 33 °F (2008)
Degree Days  
Heating Degree Days 16    
Moisture  
Dew Point 46 °F    
Average Humidity 88    
Maximum Humidity 93    
Minimum Humidity 82    
Precipitation  
Precipitation 0.14 in - - ()
Sea Level Pressure  
Sea Level Pressure 29.83 in    
Wind  
Wind Speed 16 mph (SSW)    
Max Wind Speed 24 mph    
Max Gust Speed 33 mph    
Visibility 6 miles    
Events Rain    
Averages and records for this station are not official NWS values.
T = Trace of Precipitation, MM = Missing Value Source: NWS Daily Summary

Daily Weather History Graph

Daily Weather History Graph

Search for Another Location

Airport or City:

Trip Planner

Search our weather history database for the weather conditions in past years. The results will help you decide how hot, cold, wet, or windy it might be!

Date:

Astronomy

Mar. 27, 2014 Rise Set
Actual Time 7:06 AM PDT 7:37 PM PDT
Civil Twilight 6:36 AM PDT 8:06 PM PDT
Nautical Twilight 6:02 AM PDT 8:41 PM PDT
Astronomical Twilight 5:26 AM PDT 9:17 PM PDT
Moon 5:09 AM PDT (3/27) 4:25 PM PDT (3/27)
Length of Visible Light 13h 29m
Length of Day
12h 31m
Waning Crescent, 12% of the Moon is Illuminated
Mar 27
Waning Crescent
Mar 30
New
Apr 7
First Quarter
Apr 15
Full
Apr 22
Last Quarter

Hourly Weather History & Observations

Time (PDT) Temp. Windchill Dew Point Humidity Pressure Visibility Wind Dir Wind Speed Gust Speed Precip Events Conditions
12:15 AM 48.2 °F - 44.6 °F 87% 29.64 in 7.0 mi SSW 19.6 mph 27.6 mph N/A   Overcast
12:35 AM 48.2 °F - 44.6 °F 87% 29.64 in 7.0 mi SSW 17.3 mph 26.5 mph N/A   Overcast
12:55 AM 48.2 °F - 44.6 °F 87% 29.63 in 7.0 mi SSW 16.1 mph 25.3 mph N/A   Overcast
1:15 AM 46.4 °F 39.8 °F 44.6 °F 93% 29.63 in 5.0 mi SSW 16.1 mph 28.8 mph N/A Rain Light Rain
1:35 AM 46.4 °F 39.5 °F 44.6 °F 93% 29.64 in 7.0 mi SSW 17.3 mph 28.8 mph N/A   Overcast
1:55 AM 46.4 °F 39.2 °F 44.6 °F 93% 29.64 in 7.0 mi SSW 18.4 mph 24.2 mph N/A   Overcast
2:15 AM 48.2 °F - 44.6 °F 87% 29.65 in 7.0 mi SW 20.7 mph 31.1 mph N/A   Overcast
2:35 AM 48.2 °F - 44.6 °F 87% - 7.0 mi SW 19.6 mph 25.3 mph N/A Rain Light Rain
2:55 AM 48.2 °F - 44.6 °F 87% 29.66 in 7.0 mi SSW 24.2 mph 29.9 mph N/A Rain Light Rain
3:15 AM 46.4 °F 38.3 °F 44.6 °F 93% 29.66 in 5.0 mi SW 23.0 mph 33.4 mph N/A   Overcast
3:35 AM 48.2 °F - 44.6 °F 87% 29.67 in 7.0 mi WSW 17.3 mph 27.6 mph N/A   Overcast
3:55 AM 48.2 °F - 44.6 °F 87% 29.68 in 7.0 mi SW 21.9 mph - N/A   Overcast
4:15 AM 48.2 °F - 44.6 °F 87% - 7.0 mi SW 15.0 mph 27.6 mph N/A   Overcast
4:35 AM 48.2 °F - 44.6 °F 87% 29.69 in 7.0 mi SW 17.3 mph 23.0 mph N/A   Overcast
4:55 AM 48.2 °F - 44.6 °F 87% 29.70 in 7.0 mi SW 18.4 mph 24.2 mph N/A   Overcast
5:15 AM 48.2 °F - 44.6 °F 87% 29.71 in 7.0 mi SW 16.1 mph 19.6 mph N/A   Overcast
5:35 AM 48.2 °F - 44.6 °F 87% 29.72 in 7.0 mi WSW 13.8 mph 21.9 mph 0.01 in Rain Light Rain
5:55 AM 46.4 °F 40.4 °F 44.6 °F 93% 29.72 in 7.0 mi SW 13.8 mph 24.2 mph 0.01 in   Overcast
6:15 AM 46.4 °F 40.1 °F 44.6 °F 93% 29.73 in 7.0 mi SW 15.0 mph 21.9 mph N/A   Overcast
6:35 AM 48.2 °F - 44.6 °F 87% 29.74 in 7.0 mi SW 15.0 mph 21.9 mph N/A   Overcast
6:55 AM 46.4 °F 41.1 °F 44.6 °F 93% 29.75 in 7.0 mi SW 11.5 mph 19.6 mph N/A   Overcast
7:15 AM 46.4 °F 40.4 °F 44.6 °F 93% 29.76 in 5.0 mi SW 13.8 mph 18.4 mph N/A   Mostly Cloudy
7:35 AM 46.4 °F 42.4 °F 44.6 °F 93% 29.77 in 4.0 mi WSW 8.1 mph - 0.02 in Rain Light Rain
7:55 AM 46.4 °F 40.7 °F 44.6 °F 93% 29.78 in 5.0 mi SW 12.7 mph 17.3 mph 0.02 in   Mostly Cloudy
8:15 AM 46.4 °F 39.8 °F 44.6 °F 93% 29.79 in 4.0 mi WSW 16.1 mph 21.9 mph N/A   Overcast
8:35 AM 46.4 °F 41.1 °F 44.6 °F 93% 29.80 in 5.0 mi SW 11.5 mph - N/A   Overcast
8:55 AM 48.2 °F - 46.4 °F 93% 29.80 in 5.0 mi SW 15.0 mph 19.6 mph N/A   Overcast
9:15 AM 48.2 °F - 44.6 °F 87% 29.81 in 2.5 mi SW 15.0 mph - 0.01 in Rain Rain
9:35 AM 48.2 °F - 46.4 °F 93% 29.82 in 5.0 mi SW 12.7 mph - 0.01 in   Overcast
9:55 AM 50.0 °F - 46.4 °F 87% 29.83 in 7.0 mi WSW 12.7 mph 18.4 mph 0.01 in   Mostly Cloudy
10:15 AM 50.0 °F - 46.4 °F 87% 29.85 in 5.0 mi WSW 13.8 mph 20.7 mph N/A   Mostly Cloudy
10:35 AM 48.2 °F - 44.6 °F 87% 29.85 in 7.0 mi SW 15.0 mph 19.6 mph N/A   Overcast
10:55 AM 50.0 °F - 44.6 °F 82% 29.86 in 7.0 mi SW 12.7 mph - N/A   Scattered Clouds
11:15 AM 50.0 °F - 46.4 °F 87% 29.87 in 7.0 mi SW 12.7 mph - N/A   Mostly Cloudy
11:35 AM 48.2 °F - 46.4 °F 93% 29.88 in 2.0 mi SW 10.4 mph 20.7 mph 0.01 in Rain Light Rain
11:55 AM 50.0 °F - 46.4 °F 87% 29.89 in 7.0 mi SW 10.4 mph - 0.01 in   Overcast
12:15 PM 50.0 °F - 46.4 °F 87% 29.90 in 5.0 mi SW 12.7 mph 18.4 mph N/A   Overcast
12:35 PM 51.8 °F - 46.4 °F 82% 29.90 in 7.0 mi SW 15.0 mph 18.4 mph N/A   Overcast
12:55 PM 51.8 °F - 46.4 °F 82% 29.91 in 7.0 mi SW 13.8 mph - N/A   Overcast
1:15 PM 51.8 °F - 46.4 °F 82% 29.91 in 7.0 mi SW 16.1 mph - N/A   Overcast
1:35 PM 51.8 °F - 46.4 °F 82% 29.92 in 7.0 mi SW 13.8 mph - N/A   Overcast
1:55 PM 51.8 °F - 48.2 °F 88% 29.92 in 7.0 mi SW 13.8 mph 19.6 mph N/A   Overcast
2:15 PM 53.6 °F - 48.2 °F 82% 29.92 in 7.0 mi SSW 16.1 mph 23.0 mph N/A   Overcast
2:35 PM 53.6 °F - 48.2 °F 82% 29.92 in 7.0 mi SSW 16.1 mph 21.9 mph N/A   Overcast
2:55 PM 51.8 °F - 48.2 °F 88% 29.92 in 7.0 mi SSW 16.1 mph 23.0 mph N/A   Overcast
3:15 PM 51.8 °F - 48.2 °F 88% 29.92 in 5.0 mi SSW 17.3 mph 21.9 mph N/A   Overcast
3:35 PM 51.8 °F - 48.2 °F 88% 29.93 in 7.0 mi SSW 16.1 mph - N/A   Overcast
3:55 PM 51.8 °F - 46.4 °F 82% 29.93 in 7.0 mi SSW 17.3 mph - N/A   Overcast
4:15 PM 51.8 °F - 48.2 °F 88% 29.94 in 7.0 mi SSW 18.4 mph 26.5 mph N/A   Overcast
4:35 PM 51.8 °F - 46.4 °F 82% 29.94 in 7.0 mi SSW 18.4 mph - N/A   Overcast
5:15 PM 51.8 °F - 46.4 °F 82% 29.94 in 7.0 mi SSW 16.1 mph 21.9 mph N/A   Overcast
5:55 PM 50.0 °F - 46.4 °F 87% 29.93 in 7.0 mi South 16.1 mph 24.2 mph N/A   Overcast
6:15 PM 50.0 °F - 46.4 °F 87% 29.93 in 5.0 mi SSW 16.1 mph 21.9 mph 0.01 in   Mostly Cloudy
6:35 PM 50.0 °F - 46.4 °F 87% 29.93 in 5.0 mi South 12.7 mph - 0.01 in   Overcast
6:55 PM 50.0 °F - 46.4 °F 87% 29.93 in 5.0 mi South 15.0 mph 23.0 mph 0.01 in   Overcast
7:15 PM 50.0 °F - 46.4 °F 87% 29.93 in 5.0 mi SSW 12.7 mph - N/A   Overcast
7:35 PM 50.0 °F - 46.4 °F 87% 29.93 in 5.0 mi South 12.7 mph - N/A   Overcast
7:55 PM 50.0 °F - 46.4 °F 87% 29.92 in 7.0 mi South 9.2 mph - N/A   Overcast
8:15 PM 50.0 °F - 46.4 °F 87% 29.92 in 7.0 mi South 11.5 mph 17.3 mph N/A Rain Light Rain
8:35 PM 50.0 °F - 46.4 °F 87% 29.93 in 7.0 mi South 16.1 mph - N/A   Overcast
8:55 PM 50.0 °F - 46.4 °F 87% 29.93 in 5.0 mi South 13.8 mph 23.0 mph N/A Rain Light Rain
9:15 PM 50.0 °F - 46.4 °F 87% 29.93 in 5.0 mi South 10.4 mph - N/A   Drizzle
9:35 PM 50.0 °F - 46.4 °F 87% 29.93 in 5.0 mi South 13.8 mph 24.2 mph N/A   Drizzle
9:55 PM 50.0 °F - 46.4 °F 87% 29.92 in 5.0 mi South 15.0 mph 23.0 mph 0.01 in Rain Rain
10:15 PM 50.0 °F - 46.4 °F 87% 29.92 in 4.0 mi South 13.8 mph 26.5 mph 0.02 in Rain Rain
10:35 PM 48.2 °F - 46.4 °F 93% 29.92 in 3.0 mi SE 6.9 mph - 0.02 in   Drizzle
10:55 PM 48.2 °F - 46.4 °F 93% 29.91 in 5.0 mi SE 6.9 mph - 0.03 in   Drizzle
11:15 PM 48.2 °F - 46.4 °F 93% 29.91 in 5.0 mi SE 5.8 mph - 0.01 in   Drizzle
11:35 PM 48.2 °F - 46.4 °F 93% 29.90 in 4.0 mi SE 6.9 mph - 0.03 in Rain Heavy Rain
11:55 PM 48.2 °F - 46.4 °F 93% 29.90 in 10.0 mi SE 6.9 mph - 0.04 in Rain Light Rain